Weather in Tralee

Ireland     52°16′05″N   9°42′01″W
В апреле 2022 года жителям России запретили посещать сайт meteo.paraplan.net по решению Генеральной прокуратуры. Аудитория сайта уменьшилась в 10 раз. Владельцы сайта не видят смысла в поддержке погодного сервера в таких условиях. Сайт будет закрыт в октябре.
temp.,
°C
wind,
m/s
gust,
m/s
humid.,
%
clouds,
%
prec.,
mm/h
press.,
hPa
HPBL,
m
6 october, thu
thu601:00+12sw6138336 0.0 1022956
04:00+13sw7138790 0.1 1021985
07:00+14wsw7139098 0.6 1022960
10:00+14sw6128959 0.6 1023958
13:00+15sw6118315 1.0 10221092
16:00+15sw6128359 0.6 10211123
19:00+13sw51283100 0.9 1020816
22:00+13sw5138584 0.1 1019894
7 october, fri
fri701:00+14sw61488100 0.6 10171095
04:00+13wsw9169195 1.8 10151142
07:00+12w8149054 4.0 1015895
10:00+12w7118259 0.7 1016962
13:00+12w8127816 1.8 10171325
16:00+12wnw812755 0.9 10181332
19:00+11wnw711755 1.2 1020754
22:00+11wnw510808 0.3 1022417
8 october, sat
sat801:00+10w468648 0.6 1023222
04:00+9w238214 0.1 1023157
07:00+9ssw228476 0.1 1023120
10:00+10sse238398 0.0 1023119
13:00+14s366621 0.0 10211148
16:00+14s4767100 0.0 10191139
19:00+10sse3485100 0.0 1016177
22:00+10sse3690100 0.0 1014247
9 october, sun
sun901:00+12sse71481100 0.0 1009912
04:00+13sse92091100 1.6 10031415
07:00+13s71792100 3.5 9991216
10:00+13sse3897100 1.9 997343
13:00+14nw71294100 4.9 1001878
16:00+11nnw10147870 0.1 10071075
19:00+11nnw812668 0.1 1011824
22:00+11nnw6116819 0.0 1015637
10 october, mon
mon1001:00+12nw596472 0.0 1017655
04:00+11nw487199 0.0 1019528
07:00+11nw376890 0.1 1021375
10:00+12wnw247199 0.1 1023299
13:00+14wsw2364100 0.1 1024897
16:00+14sw3464100 0.0 10241211
19:00+10ssw2379100 0.0 1024154
22:00+8sse238698 0.0 1023112